Saison 2024 · Manche 18

Singapore Grand Prix

2024-09-22 · Marina Bay Street Circuit · Singapore · Singapore Grand Prix · 62Lap · 306.143km
McLaren 1:40:52.571
Victoire par équipe 40pt P1 · P3 1-3
Red Bull +20.945
McLaren +41.823
Meilleur tour
1:34.486 · L60
Abandon
1
Alexander Albon L15
Météo
31°/36°
moy. air/piste · sec · humidité 75%
Voiture de sécurité
0
Déploiements SC/VSC
Utilisation des pneus Direction de course
Storylines · This Grand Prix & circuit
Plus de victoires à ce GP
Sebastian Vettel 5 victoires
Lewis Hamilton actif 4 victoires
Conversion pole-victoire 11/16 68.8%
Most SC/VSC · all-time P14
Arrivée la plus serrée · all-time P20
Circuit Info
Marina Bay Street Circuit Marina Bay, Singapore
62Lap 306.143km 17 courses held (2008–) Record du tour 1:33.808 · Lewis Hamilton (2025)
Records Watch · Active drivers ranked at this Grand Prix
P2 Lewis Hamilton 4 victoires · → Sebastian Vettel -1
P3 Fernando Alonso 2 victoires · → Lewis Hamilton -2
P4 Lando Norris 1 victoires · → Fernando Alonso -1
P1 Lewis Hamilton 16 départs · GP #1
P2 Fernando Alonso 15 départs · → Lewis Hamilton -1
P4 Nico Hülkenberg 12 départs · → Sebastian Vettel -1
Course Trace · position by lap
départ arrêté SG 1 6 11 16 21 26 31 36 41 46 51 56 61 Norris · arrêt aux stands L30 Norris NOR Norris NOR Verstappen · arrêt aux stands L29 Verstappen VER Verstappen VER Piastri · arrêt aux stands L38 Piastri PIA Piastri PIA Russell · arrêt aux stands L27 Russell RUS Russell RUS Leclerc · arrêt aux stands L36 Leclerc LEC Leclerc LEC Hamilton · arrêt aux stands L17 Hamilton HAM Hamilton HAM Sainz · arrêt aux stands L13 Sainz SAI Sainz SAI Alonso · arrêt aux stands L25 Alonso ALO Alonso ALO Hülkenberg · arrêt aux stands L29 Hülkenberg HUL Hülkenberg HUL Pérez · arrêt aux stands L28 Pérez PER Pérez PER Colapinto · arrêt aux stands L29 Colapinto COL Colapinto COL Tsunoda · arrêt aux stands L33 Tsunoda TSU Tsunoda TSU Ocon · arrêt aux stands L29 Ocon OCO Ocon OCO Stroll · arrêt aux stands L26 Stroll STR Stroll STR Zhou · arrêt aux stands L34 Zhou ZHO Zhou ZHO Bottas · arrêt aux stands L33 Bottas BOT Bottas BOT Gasly · arrêt aux stands L37 Gasly GAS Gasly GAS Ricciardo · arrêt aux stands L10 Ricciardo · arrêt aux stands L46 Ricciardo · arrêt aux stands L58 Ricciardo RIC Ricciardo RIC Magnussen · arrêt aux stands L28 Magnussen · arrêt aux stands L49 Magnussen · arrêté L57 · classé P19 Magnussen MAG Magnussen MAG Albon · arrêt aux stands L11 Albon · abandon L15 Albon ALB Albon ALB
arrêt aux stands pénalité purgée aux stands SG Grille de départ voiture arrêtée position à chaque tour (depuis 1996)
PosPiloteTeamGrilleTourTemps / StatutPoints
1 4 Lando Norris McLaren 1 62 1:40:52.571 25
2 1 Max Verstappen Red Bull 2 62 +20.945 18
3 81 Oscar Piastri McLaren 5 62 +41.823 15
4 63 George Russell Mercedes 4 62 +1:01.040 12
5 16 Charles Leclerc Ferrari 9 62 +1:02.430 10
6 44 Lewis Hamilton Mercedes 3 62 +1:25.248 8
7 55 Carlos Sainz Ferrari 10 62 +1:36.039 6
8 14 Fernando Alonso Aston Martin 7 61 +0.873 4
9 27 Nico Hülkenberg Haas F1 Team 6 61 +3.140 2
10 11 Sergio Pérez Red Bull 13 61 +4.624 1
11 43 Franco Colapinto Williams 12 61 +6.284
12 22 Yuki Tsunoda RB F1 Team 8 61 +8.792
13 31 Esteban Ocon Alpine F1 Team 15 61 +44.005
14 18 Lance Stroll Aston Martin 17 61 +47.571
15 24 Guanyu Zhou Sauber 20 61 +57.220
16 77 Valtteri Bottas Sauber 19 61 +57.829
17 10 Pierre Gasly Alpine F1 Team 18 61 +59.059
18 3 Daniel Ricciardo FL RB F1 Team 16 61 +1:29.796
19 20 Kevin Magnussen Haas F1 Team 14 57
R 23 Alexander Albon Williams 11 15 Retired
PosPiloteTeamQ1Q2Q3Écart à la pole
1 4 Lando Norris McLaren 1:30.002 1:30.007 1:29.525 POLE Q3
2 1 Max Verstappen Red Bull 1:30.157 1:29.680 1:29.728 +0.155 Q2
3 44 Lewis Hamilton Mercedes 1:30.393 1:29.929 1:29.841 +0.316 Q3
4 63 George Russell Mercedes 1:30.811 1:30.153 1:29.867 +0.342 Q3
5 81 Oscar Piastri McLaren 1:30.258 1:29.640 1:29.953 +0.115 Q2
6 27 Nico Hülkenberg Haas F1 Team 1:30.724 1:30.150 1:30.115 +0.590 Q3
7 14 Fernando Alonso Aston Martin 1:30.684 1:30.450 1:30.214 +0.689 Q3
8 22 Yuki Tsunoda RB F1 Team 1:30.716 1:30.289 1:30.354 +0.764 Q2
9 16 Charles Leclerc Ferrari 1:30.786 1:29.747 +0.222 Q2
10 55 Carlos Sainz Ferrari 1:30.670 1:30.108 +0.583 Q2
11 23 Alexander Albon Williams 1:30.679 1:30.474 +0.949 Q2
12 43 Franco Colapinto Williams 1:30.704 1:30.481 +0.956 Q2
13 11 Sergio Pérez Red Bull 1:30.624 1:30.579 +1.054 Q2
14 20 Kevin Magnussen Haas F1 Team 1:30.829 1:30.653 +1.128 Q2
15 31 Esteban Ocon Alpine F1 Team 1:30.958 1:30.769 +1.244 Q2
16 3 Daniel Ricciardo RB F1 Team 1:31.085 +1.560 Q1
17 18 Lance Stroll Aston Martin 1:31.094 +1.569 Q1
18 10 Pierre Gasly Alpine F1 Team 1:31.312 +1.787 Q1
19 77 Valtteri Bottas Sauber 1:31.572 +2.047 Q1
20 24 Guanyu Zhou Sauber 1:32.054 +2.529 Q1
Grille de départ
Officielle
Final grid as classé, including any depuis la voie des stands départs. Source: Jolpica-F1. The arrow compares the grid slot with the les qualifications classification; hover a drop to see the stewards document behind it.
Aucune donnée pour cette séance.
PosPiloteMeilleur tourÉcartTours
1 16 Charles Leclerc 1:31.763 26
2 4 Lando Norris 1:31.839 +0.076 25
3 55 Carlos Sainz 1:31.952 +0.189 27
4 1 Max Verstappen 1:32.097 +0.334 22
5 22 Yuki Tsunoda 1:32.263 +0.500 26
6 81 Oscar Piastri 1:32.369 +0.606 25
7 3 Daniel Ricciardo 1:32.375 +0.612 21
8 23 Alexander Albon 1:32.451 +0.688 25
9 14 Fernando Alonso 1:32.610 +0.847 26
10 31 Esteban Ocon 1:32.615 +0.852 27
11 43 Franco Colapinto 1:32.618 +0.855 25
12 44 Lewis Hamilton 1:32.679 +0.916 24
13 10 Pierre Gasly 1:32.694 +0.931 27
14 11 Sergio Pérez 1:32.767 +1.004 22
15 18 Lance Stroll 1:32.778 +1.015 21
16 63 George Russell 1:33.334 +1.571 25
17 20 Kevin Magnussen 1:33.377 +1.614 21
18 77 Valtteri Bottas 1:33.485 +1.722 25
19 24 Guanyu Zhou 1:33.585 +1.822 24
20 27 Nico Hülkenberg 1:33.797 +2.034 24
Classified by best lap · source OpenF1 (2023+)
PosPiloteMeilleur tourÉcartTours
1 4 Lando Norris 1:30.727 27
2 16 Charles Leclerc 1:30.785 +0.058 28
3 55 Carlos Sainz 1:31.356 +0.629 27
4 22 Yuki Tsunoda 1:31.468 +0.741 28
5 81 Oscar Piastri 1:31.474 +0.747 27
6 3 Daniel Ricciardo 1:31.478 +0.751 26
7 63 George Russell 1:31.488 +0.761 25
8 11 Sergio Pérez 1:31.598 +0.871 25
9 23 Alexander Albon 1:31.650 +0.923 26
10 27 Nico Hülkenberg 1:31.667 +0.940 26
11 44 Lewis Hamilton 1:31.709 +0.982 24
12 14 Fernando Alonso 1:31.750 +1.023 25
13 20 Kevin Magnussen 1:31.793 +1.066 26
14 18 Lance Stroll 1:31.957 +1.230 25
15 1 Max Verstappen 1:32.021 +1.294 24
16 43 Franco Colapinto 1:32.057 +1.330 26
17 31 Esteban Ocon 1:32.119 +1.392 27
18 10 Pierre Gasly 1:32.222 +1.495 27
19 24 Guanyu Zhou 1:32.359 +1.632 26
20 77 Valtteri Bottas 1:32.786 +2.059 26
Classified by best lap · source OpenF1 (2023+)
PosPiloteMeilleur tourÉcartTours
1 4 Lando Norris 1:29.646 16
2 63 George Russell 1:30.125 +0.479 19
3 81 Oscar Piastri 1:30.431 +0.785 16
4 1 Max Verstappen 1:30.540 +0.894 16
5 16 Charles Leclerc 1:30.559 +0.913 20
6 55 Carlos Sainz 1:30.807 +1.161 20
7 44 Lewis Hamilton 1:30.864 +1.218 19
8 23 Alexander Albon 1:30.949 +1.303 13
9 43 Franco Colapinto 1:30.989 +1.343 15
10 14 Fernando Alonso 1:31.082 +1.436 23
11 22 Yuki Tsunoda 1:31.114 +1.468 16
12 27 Nico Hülkenberg 1:31.187 +1.541 14
13 20 Kevin Magnussen 1:31.265 +1.619 14
14 10 Pierre Gasly 1:31.367 +1.721 22
15 11 Sergio Pérez 1:31.440 +1.794 15
16 31 Esteban Ocon 1:31.559 +1.913 20
17 3 Daniel Ricciardo 1:31.561 +1.915 17
18 18 Lance Stroll 1:31.719 +2.073 24
19 77 Valtteri Bottas 1:32.098 +2.452 17
20 24 Guanyu Zhou 1:32.652 +3.006 19
Classified by best lap · source OpenF1 (2023+)
#PiloteTemps au tourTour
1 3 Daniel Ricciardo 1:34.486 L60
2 20 Kevin Magnussen 1:34.754 L51
3 4 Lando Norris 1:34.925 L48
4 16 Charles Leclerc 1:35.371 L46
5 16 Charles Leclerc 1:35.639 L44
6 16 Charles Leclerc 1:35.716 L45
7 81 Oscar Piastri 1:35.745 L48
8 16 Charles Leclerc 1:35.758 L47
9 16 Charles Leclerc 1:35.792 L48
10 16 Charles Leclerc 1:35.849 L43
Top 10 la plus rapide race tours — #1 is the la plus rapide lap of la course(FL).
Arrêts aux stands · comparaison
29s 30s 31s médiane 29.6s George Russell · L27 · 28.739s Sergio Pérez · L28 · 28.990s Charles Leclerc · L36 · 29.042s Daniel Ricciardo · L46 · 29.066s Lando Norris · L30 · 29.091s Alexander Albon · L11 · 29.126s Oscar Piastri · L38 · 29.152s Fernando Alonso · L25 · 29.251s Lewis Hamilton · L17 · 29.272s Guanyu Zhou · L34 · 29.360s Carlos Sainz · L13 · 29.385s Esteban Ocon · L29 · 29.601s Daniel Ricciardo · L58 · 29.653s Max Verstappen · L29 · 29.655s Yuki Tsunoda · L33 · 29.662s Kevin Magnussen · L28 · 29.707s Franco Colapinto · L29 · 29.772s Nico Hülkenberg · L29 · 29.808s Lance Stroll · L26 · 29.816s Daniel Ricciardo · L10 · 30.316s Valtteri Bottas · L33 · 30.423s Kevin Magnussen · L49 · 31.291s Pierre Gasly · L37 · 31.509s
la plus rapide 28.739s George Russell la plus lente 31.509s Pierre Gasly temps de passage dans la voie des stands — un point par arrêt
PiloteArrêtTourTempsPassage dans la voie des stands
3 Daniel Ricciardo 1 10 20:20:46 30.316s
23 Alexander Albon 1 11 20:22:22 29.126s
55 Carlos Sainz 1 13 20:25:37 29.385s
44 Lewis Hamilton 1 17 20:31:54 29.272s
14 Fernando Alonso 1 25 20:45:21 29.251s
18 Lance Stroll 1 26 20:47:31 29.816s
63 George Russell 1 27 20:48:22 28.739s
20 Kevin Magnussen 1 28 20:50:47 29.707s
11 Sergio Pérez 1 28 20:50:26 28.990s
31 Esteban Ocon 1 29 20:52:22 29.601s
43 Franco Colapinto 1 29 20:52:02 29.772s
1 Max Verstappen 1 29 20:51:28 29.655s
27 Nico Hülkenberg 1 29 20:52:00 29.808s
4 Lando Norris 1 30 20:52:44 29.091s
77 Valtteri Bottas 1 33 20:59:22 30.423s
22 Yuki Tsunoda 1 33 20:58:54 29.662s
24 Guanyu Zhou 1 34 21:01:01 29.360s
16 Charles Leclerc 1 36 21:03:29 29.042s
10 Pierre Gasly 1 37 21:06:04 31.509s
81 Oscar Piastri 1 38 21:06:22 29.152s
3 Daniel Ricciardo 2 46 21:20:58 29.066s
20 Kevin Magnussen 2 49 21:26:52 31.291s
3 Daniel Ricciardo 3 58 21:40:58 29.653s
arrêts
SG 10 20 30 40 50 L62
4
1
M29
H33
1
1
M28
H34
81
1
M37
H25
63
1
M26
H36
16
1
M35
H27
44
1
S16·+2
H46
55
1
M12
H50
14
1
M24·+1
H37·+1
27
1
M28
H33
11
1
M27
H34
43
1
M28
H33
22
1
M32
S29
31
1
M28
H33
18
1
H25·+1
M36·+1
24
1
H33
M28
77
1
H32
M29
10
1
M36
S25
3
3
S9
M36
S12
S4·+3
20
2
H27
M21
S9
23
1
M10
H5
S Soft M Medium H Hard I Intermediate W Wet SC·VSC arrêt aux stands pénalité purgée aux stands
Course · largeur de barre = tours sur ce train, ·+N = monté usagé avec N tours au compteur · source OpenF1 (2023+)
Composés désignés pour ce Grand Prix
C3 Dur C4 Medium C5 Tendre
Pirelli désigne trois de ses composés slicks pour chaque épreuve ; plus le numéro C est élevé, plus le pneu est tendre. Document FIA ↗
Plus de places gagnées en piste
55
+12
P10→P7
24
+10
P20→P15
10
+10
P18→P17
44
+9
P3→P6
14
+9
P7→P8
3
+9
P16→P18
18
+8
P17→P14
77
+8
P19→P16
Plus de places perdues
Lewis Hamilton −12 Daniel Ricciardo −11 Kevin Magnussen −11
Course · Somme des places gagnées en piste tour par tour — tour de départ et tours aux stands du pilote exclus. Données de tours de course depuis 1996.
PiloteTypeTourPurgéeInfligéeMotif
55 Carlos Sainz Tours supprimés 5 TRACK LIMITS
Tour 5 TRACK LIMITS
20 Kevin Magnussen Tours supprimés 52 TRACK LIMITS (PIT)
Tour 52 TRACK LIMITS (PIT)
Tour = tour où la pénalité a été infligée · Purgée = tour où elle a été purgée aux stands (vide : ajoutée au temps de course)
Time, drive-through and stop-go penalties come from race control messages (OpenF1, 2023+). Grille penalties never appear there — the stewards publish them as documents after the session — so they are worked back from the starting grid against the les qualifications classification, which gives places actually lost rather than the figure written in the decision.
PiloteTypeTourPurgéeInfligéeMotif
55 Carlos Sainz Fine €25,000 Crossing the track without permission during Qualifications. (The driver is fined €25,000, €12,500 of which is suspended for the remainder of the 2024 season on c) Doc 35 ↗
€25,000 Crossing the track without permission during Qualifications. (The driver is fined €25,000, €12,500 of which is suspended for the remainder of the 2024 season on c) Doc 35 ↗
55 Carlos Sainz Black-and-white flag warning Failure to follow the Course Director’s Event Notes. (Warning.) Doc 34 ↗
Failure to follow the Course Director’s Event Notes. (Warning.) Doc 34 ↗
44 Lewis Hamilton Tours supprimés TRACK LIMITS (PIT)
TRACK LIMITS (PIT)
11 Sergio Pérez Tours supprimés TRACK LIMITS (PIT)
TRACK LIMITS (PIT)
31 Esteban Ocon Tours supprimés TRACK LIMITS (PIT)
TRACK LIMITS (PIT)
Tour = tour où la pénalité a été infligée · Purgée = tour où elle a été purgée aux stands (vide : ajoutée au temps de course)
Time, drive-through and stop-go penalties come from race control messages (OpenF1, 2023+). Grille penalties never appear there — the stewards publish them as documents after the session — so they are worked back from the starting grid against the les qualifications classification, which gives places actually lost rather than the figure written in the decision.
PiloteTypeTourPurgéeInfligéeMotif
16 Charles Leclerc Fine €5,000 Failed to follow the procedures in TD 003N. (The competitor (Scuderia Ferrari) is fined €5,000.) Doc 28 ↗
€5,000 Failed to follow the procedures in TD 003N. (The competitor (Scuderia Ferrari) is fined €5,000.) Doc 28 ↗
Tour = tour où la pénalité a été infligée · Purgée = tour où elle a été purgée aux stands (vide : ajoutée au temps de course)
Time, drive-through and stop-go penalties come from race control messages (OpenF1, 2023+). Grille penalties never appear there — the stewards publish them as documents after the session — so they are worked back from the starting grid against the les qualifications classification, which gives places actually lost rather than the figure written in the decision.
PiloteTypeTourPurgéeInfligéeMotif
11 Sergio Pérez Black-and-white flag warning FAILING TO FOLLOW RACE DIRECTORS INSTRUCTIONS – CROSSING THE LINE AT PIT EXIT
FAILING TO FOLLOW RACE DIRECTORS INSTRUCTIONS – CROSSING THE LINE AT PIT EXIT
Tour = tour où la pénalité a été infligée · Purgée = tour où elle a été purgée aux stands (vide : ajoutée au temps de course)
Time, drive-through and stop-go penalties come from race control messages (OpenF1, 2023+). Grille penalties never appear there — the stewards publish them as documents after the session — so they are worked back from the starting grid against the les qualifications classification, which gives places actually lost rather than the figure written in the decision.
PiloteTypeTourPurgéeInfligéeMotif
1 Max Verstappen Autres sanction Language during the FIA Thursday Pilote Press Conference. (Obligation to accomplish some work of public interest.) Doc 15 ↗
Language during the FIA Thursday Pilote Press Conference. (Obligation to accomplish some work of public interest.) Doc 15 ↗
Tour = tour où la pénalité a été infligée · Purgée = tour où elle a été purgée aux stands (vide : ajoutée au temps de course)
Time, drive-through and stop-go penalties come from race control messages (OpenF1, 2023+). Grille penalties never appear there — the stewards publish them as documents after the session — so they are worked back from the starting grid against the les qualifications classification, which gives places actually lost rather than the figure written in the decision.
DocTitreObjetPublished(CET)
1 Event Notes - Pirelli Preview ↗ 2024-09-18 09:53
2024-09-18 09:53 CET
2 Post-Course Checks on Car 81, Azerbaijan GP ↗ 81 Oscar Piastri 2024-09-18 09:44
81 Oscar Piastri 2024-09-18 09:44 CET
3 Course Director's Event Notes ↗ 2024-09-19 11:01
2024-09-19 11:01 CET
4 Event Notes - Circuit Map, Pit Lane Drawing and Red Zones ↗ 2024-09-19 15:26
2024-09-19 15:26 CET
6 Car Display Procedure ↗ 2024-09-19 16:16
2024-09-19 16:16 CET
7 PU elements utilisés per driver up to now ↗ 2024-09-20 08:55
2024-09-20 08:55 CET
8 RNCs utilisés per driver up to now ↗ 2024-09-20 08:56
2024-09-20 08:56 CET
9 Self Scrutineering ↗ 2024-09-20 08:56
2024-09-20 08:56 CET
10 Car Presentation Submissions ↗ 2024-09-20 09:00
2024-09-20 09:00 CET
11 Entry List ↗ 2024-09-20 09:31
2024-09-20 09:31 CET
12 New PU elements for this Competition ↗ 2024-09-20 11:43
2024-09-20 11:43 CET
13 Summons - Car 1 - Press Conference Language ↗ 1 Max Verstappen 2024-09-20 12:43
1 Max Verstappen 2024-09-20 12:43 CET
14 P1 Classification ↗ 2024-09-20 12:51
2024-09-20 12:51 CET
15 Infringement - Car 1 - Press Conference Language ↗ 1 Max Verstappen 2024-09-20 13:23
1 Max Verstappen 2024-09-20 13:23 CET
16 P2 Classification ↗ 2024-09-20 16:15
2024-09-20 16:15 CET
17 Course Director's Note - SC2-SC1 Time ↗ 2024-09-20 16:20
2024-09-20 16:20 CET
18 RNC utilisés outside allocation ↗ 2024-09-20 17:14
2024-09-20 17:14 CET
19 P1 and P2 Scrutineering ↗ 2024-09-20 17:58
2024-09-20 17:58 CET
20 Curfew ↗ 2024-09-21 11:27
2024-09-21 11:27 CET
21 New PU elements for this Competition ↗ 2024-09-21 11:43
2024-09-21 11:43 CET
22 New RNCs for this Competition ↗ 2024-09-21 11:48
2024-09-21 11:48 CET
23 Post-Qualifications Procedure ↗ 2024-09-21 12:45
2024-09-21 12:45 CET
24 P3 Classification ↗ 2024-09-21 12:50
2024-09-21 12:50 CET
25 Tyre Operating Procedures, Car 16 ↗ 16 Charles Leclerc 2024-09-21 13:08
16 Charles Leclerc 2024-09-21 13:08 CET
27 Summons - Car 16 - Tyre Operating Procedures ↗ 16 Charles Leclerc 2024-09-21 13:44
16 Charles Leclerc 2024-09-21 13:44 CET
28 Infringement - Car 16 - Tyre Operating Procedures ↗ 16 Charles Leclerc 2024-09-21 14:48
16 Charles Leclerc 2024-09-21 14:48 CET
29 Summons - Car 55 - Failure to follow Course Director's Instruction ↗ 55 Carlos Sainz 2024-09-21 16:36
55 Carlos Sainz 2024-09-21 16:36 CET
30 Summons - Car 55 - Crossing the track ↗ 55 Carlos Sainz 2024-09-21 16:36
55 Carlos Sainz 2024-09-21 16:36 CET
31 Provisional Qualifications Classification ↗ 2024-09-21 16:36
2024-09-21 16:36 CET
33 Qualifications SC2-SC1 Times ↗ 2024-09-21 16:45
2024-09-21 16:45 CET
34 Infringement - Car 55 - Failure to follow Course Director's Instructions ↗ 55 Carlos Sainz 2024-09-21 17:45
55 Carlos Sainz 2024-09-21 17:45 CET
35 Infringement - Car 55 - Crossing the track ↗ 55 Carlos Sainz 2024-09-21 17:48
55 Carlos Sainz 2024-09-21 17:48 CET
36 Infringement - Qualifications Deleted Tour Times - Yellow Drapeaux ↗ 2024-09-21 17:54
2024-09-21 17:54 CET
37 Infringement - Qualifications Deleted Tour Times (Corrected) ↗ 2024-09-21 17:57
2024-09-21 17:57 CET
38 P3 and Qualifications Scrutineering ↗ 2024-09-21 18:26
2024-09-21 18:26 CET
39 Final Qualifications Classification ↗ 2024-09-21 18:38
2024-09-21 18:38 CET
40 Provisional Starting Grille ↗ 2024-09-21 18:40
2024-09-21 18:40 CET
41 Pre-Course Procedure ↗ 2024-09-22 10:44
2024-09-22 10:44 CET
42 Post-Course Procedure ↗ 2024-09-22 10:45
2024-09-22 10:45 CET
43 Parts and parameters been replaced and or changed during Parc Fermé ↗ 2024-09-22 11:57
2024-09-22 11:57 CET
44 Final Starting Grille ↗ 2024-09-22 12:00
2024-09-22 12:00 CET
45 Course Director's Event Notes V2 ↗ 2024-09-22 12:11
2024-09-22 12:11 CET
46 Course Deleted Tour Times ↗ 2024-09-22 15:55
2024-09-22 15:55 CET
47 Provisional Course Classification ↗ 2024-09-22 16:06
2024-09-22 16:06 CET
48 Course Scrutineering ↗ 2024-09-22 17:32
2024-09-22 17:32 CET
49 Final Course Classification ↗ 2024-09-22 17:36
2024-09-22 17:36 CET
50 Championnat Points ↗ 2024-09-22 17:41
2024-09-22 17:41 CET
FIA official decisions and documents (fia.com) · PDF original PDF links
Record Basis · Calculation basis
Course order is the final classification(post-race penalties applied) · les qualifications session data 2003+ · lap times 1996+ · pit stops 2012+ (pit-lane transit, not stationary time) · Abandon = Finished(Finished·+N Tours) non-Finished statuses
Sources des données: Jolpica-F1 (Ergast compatible API) · weather·Direction de course OpenF1 (2023+) · Last fetched: 2026-09-05 23:38